RH
4 4 4 4 4 4 3 3 3 3 3 3 3 3 3 3 3 3 2 3 3 3 3 3 4 4 4 4 4 4 4 4 3 4 3 3 4 3 3 3 3 3 3 3 3 3 2 2 2 2 2 2
6 6 5 5 5 4 4 4 4 4 3 3 3 3 3 4 4 3 3 3 3 3 4 4 4 4 4 4 4 4 4 4 4 4 4 4 4 4 4 4 3 3 3 3 3 3 3 3 2 2 2 2
7 7 6 6 6 6 6 5 5 5 4 4 4 4 4 4 4 4 4 3 3 3 3 4 4 4 4 4 4 4 4 4 4 4 4 4 4 4 4 4 3 3 3 3 3 3 3 3 3 3 3 3
7 8 7 7 7 7 7 6 6 6 6 6 5 5 5 5 5 5 4 4 4 4 4 4 4 4 4 4 4 4 4 4 4 4 4 4 4 4 4 4 4 4 4 4 3 3 3 3 3 3 3 3
8 9 9 9 8 8 8 8 8 8 7 7 7 6 6 6 5 5 5 5 5 4 4 5 5 5 4 4 4 4 4 4 4 4 4 4 4 4 4 4 4 4 4 4 4 4 4 4 4 4 4 4
9 9 9 9 9 9 9 9 10 10 9 9 8 8 7 7 6 6 6 5 6 6 6 6 5 5 5 5 5 5 5 5 5 5 5 5 5 5 5 5 5 5 5 5 5 5 4 4 4 4 4 4
9 9 9 10 10 10 10 10 10 10 10 10 9 9 9 8 8 8 7 7 7 6 6 6 6 6 6 6 6 6 6 6 6 6 6 6 5 6 5 5 5 5 5 5 5 5 5 5 5 5 4 5
11 10 10 9 9 9 9 10 10 11 11 10 10 9 9 9 9 9 9 9 9 9 9 8 8 8 8 8 8 7 7 7 7 7 7 7 6 6 6 6 6 6 6 6 5 6 5 5 5 5 5 5
37 35 31 27 24 20 16 13 11 10 10 10 10 10 10 10 10 9 9 9 9 9 9 9 9 9 9 9 9 9 9 9 9 9 8 8 8 8 8 7 7 7 6 6 6 6 6 6 6 5 6 5
76 73 70 66 62 57 51 43 36 30 24 19 15 12 11 10 10 10 10 10 11 10 10 10 10 9 9 9 9 9 9 10 10 10 10 9 9 9 9 9 9 8 8 8 7 7 7 7 6 6 6 6
81 82 82 83 83 83 81 77 73 66 59 52 44 37 30 25 20 16 14 12 11 11 12 12 12 12 12 11 11 11 10 10 10 10 10 10 10 9 10 10 9 9 9 9 9 9 8 8 8 8 7 7
63 66 68 70 73 76 79 81 81 81 79 76 73 69 64 58 52 46 39 33 28 23 20 18 17 16 16 16 16 15 15 14 14 13 12 11 11 10 10 10 10 10 10 10 10 9 9 9 9 9 8 8
50 52 53 55 57 60 64 67 70 73 75 76 77 77 76 75 73 71 68 63 59 54 48 43 38 34 30 27 25 23 22 21 20 18 17 16 15 13 12 12 11 10 10 10 10 10 9 9 9 9 9 8
39 40 41 42 44 46 48 51 54 57 60 64 67 69 71 72 73 73 73 73 73 71 69 67 64 60 55 50 45 41 36 33 30 27 25 23 21 19 17 16 15 14 13 12 11 10 10 9 9 9 9 9
29 29 29 30 31 33 34 35 37 39 42 45 48 51 54 57 60 63 65 66 68 69 70 70 70 70 69 65 61 58 52 48 45 41 37 33 30 27 25 22 20 19 17 16 15 14 13 12 11 10 9 9
24 24 24 24 24 25 25 26 26 27 28 30 31 34 36 38 41 44 47 49 52 54 56 58 60 61 62 60 60 59 56 54 52 51 48 44 40 36 33 30 27 25 22 20 19 18 17 15 14 13 12 11
23 23 23 23 23 23 23 23 23 24 25 25 26 26 27 28 29 30 32 34 36 38 39 41 42 44 46 47 48 48 49 49 49 49 48 46 44 41 38 34 32 30 26 24 22 21 20 19 18 17 15 15
26 26 26 26 26 25 25 25 25 25 25 25 26 27 27 28 28 28 28 29 29 29 30 30 31 32 33 35 36 37 38 39 40 40 40 40 40 39 38 35 33 32 29 28 26 24 22 21 19 18 17 17
35 34 34 33 32 31 30 31 31 30 30 29 29 29 29 30 31 32 32 31 32 32 31 30 29 29 29 30 31 31 32 32 33 33 33 34 34 34 34 32 32 31 30 29 28 28 27 24 22 21 19 19
47 47 46 45 43 41 40 39 39 39 38 38 38 37 35 34 34 35 35 35 35 36 36 34 33 32 31 31 31 31 31 31 31 31 31 32 31 31 31 30 30 29 29 28 28 28 28 27 25 24 22 21
48 53 56 58 58 56 53 51 50 50 50 48 47 46 45 45 44 42 41 39 39 39 38 37 37 36 35 35 34 34 33 32 32 32 32 33 33 31 30 30 30 29 28 28 27 27 27 26 26 25 24 23
25 33 43 53 62 67 70 68 66 64 63 62 60 58 56 55 54 54 52 50 48 46 44 43 41 41 40 40 39 38 37 36 35 34 33 34 36 34 32 32 34 33 31 29 28 28 28 28 27 26 26 25
7 9 14 22 33 46 59 70 78 81 81 80 78 75 73 71 69 67 65 64 62 60 57 54 51 49 48 47 45 44 43 42 40 39 38 37 38 40 39 37 37 38 37 34 32 30 30 30 29 29 28 28
5 5 5 6 8 13 21 34 50 66 80 89 94 94 91 88 86 84 82 79 77 76 74 71 67 65 62 59 56 53 51 49 49 48 46 44 43 45 47 46 43 42 42 41 39 37 34 33 33 33 32 31
8 7 7 7 7 7 7 8 13 23 37 56 75 91 100 100 98 96 95 95 93 92 90 88 86 84 82 80 76 71 66 62 60 58 56 55 54 53 54 56 54 49 45 45 46 45 43 41 40 39 37 35
13 12 11 10 9 9 9 9 9 8 10 15 28 48 71 89 97 99 98 98 99 99 99 98 97 97 97 97 96 93 88 82 78 75 71 67 66 65 63 64 67 64 57 52 50 49 49 51 51 48 44 42
16 15 15 14 14 13 12 11 11 11 11 10 11 15 27 47 70 87 97 99 98 98 97 98 98 98 99 100 101 101 100 98 96 93 91 87 84 82 79 77 78 79 76 67 59 54 53 54 58 61 57 50
16 17 18 17 17 16 15 15 14 13 13 13 13 12 12 17 28 47 68 85 96 100 100 99 98 97 97 98 100 100 100 100 100 100 100 100 99 96 95 94 92 92 93 88 78 70 64 58 59 67 71 68
15 17 18 19 19 19 18 17 17 16 15 14 14 14 14 14 14 17 26 42 61 77 89 96 99 100 100 100 99 99 98 98 99 99 99 100 101 100 100 101 101 99 100 100 95 88 81 75 70 68 72 81
14 16 19 20 21 21 20 20 19 18 17 17 16 16 15 15 15 14 14 16 23 34 48 61 74 85 93 98 101 100 98 97 97 97 98 98 98 98 99 99 100 101 101 102 101 99 94 90 87 81 78 83
14 16 18 20 22 22 22 21 21 20 20 19 18 18 18 17 16 16 15 15 14 15 19 25 34 46 59 71 82 91 96 98 97 96 95 95 95 95 96 96 96 97 100 102 103 103 100 96 94 92 91 91
Wind_Speed
43 44 44 45 46 47 48 49 50 51 51 52 52 52 52 53 54 55 56 56 56 55 55 55 55 54 55 55 55 55 56 56 56 56 56 56 55 55 55 55 55 55 55 54 54 53 53 53 53 52 52 52
43 43 44 45 46 46 47 48 49 50 50 51 52 52 52 53 54 55 56 57 57 57 57 57 56 56 56 57 57 57 57 58 58 58 58 58 57 57 57 57 57 57 57 57 56 55 55 54 54 54 54 53
44 45 46 46 47 47 48 48 49 50 50 51 52 52 52 53 53 54 55 56 57 58 58 58 59 59 59 59 59 59 60 60 60 60 60 60 60 60 59 59 59 59 59 59 58 57 56 56 55 55 55 55
47 47 48 48 49 49 49 50 50 51 51 52 53 53 53 54 54 55 55 56 57 58 59 59 60 60 61 61 62 62 62 62 63 63 63 62 62 62 61 61 61 61 60 60 60 60 58 57 57 56 56 56
49 50 50 50 51 51 51 51 51 52 52 53 54 55 55 56 56 56 57 57 58 59 59 60 61 61 62 63 63 64 64 64 64 64 64 64 64 63 63 63 63 62 62 62 62 61 61 60 59 58 58 58
52 52 53 53 54 54 54 54 54 55 55 56 57 57 58 58 58 59 59 60 60 61 61 61 62 62 63 64 64 65 65 65 65 65 65 65 65 65 64 64 64 64 64 63 63 63 63 63 62 61 60 60
55 55 56 56 56 57 56 57 57 58 59 60 60 61 61 61 61 61 62 62 62 63 63 64 64 64 64 64 65 65 66 66 66 66 66 66 67 66 66 66 66 66 66 65 65 65 65 65 64 64 63 63
57 57 58 58 58 59 59 59 60 61 62 63 63 64 64 64 64 64 65 65 65 65 65 66 66 66 66 66 66 67 67 67 67 68 68 68 68 68 68 68 68 68 67 67 67 67 67 66 66 66 66 65
59 59 60 60 60 61 61 62 62 63 64 65 65 66 67 67 67 67 67 67 67 68 68 68 69 69 69 69 69 69 69 69 70 70 70 70 70 70 70 70 70 69 69 69 69 68 68 68 68 67 67 67
62 63 63 63 63 63 64 64 64 65 66 67 67 68 68 69 69 69 70 70 70 70 70 71 71 71 72 72 72 72 72 72 72 72 72 72 72 72 72 72 72 72 71 71 71 70 70 70 69 69 68 68
65 66 66 66 66 67 67 67 68 68 69 69 70 70 71 71 71 71 72 72 72 72 72 72 73 73 73 74 74 74 74 74 74 74 74 75 75 75 74 74 74 74 74 73 73 73 72 72 71 71 70 70
67 67 68 69 69 69 69 70 70 71 72 72 73 74 74 74 74 74 74 74 74 74 74 74 74 74 74 75 75 75 75 75 75 76 76 76 76 76 76 76 76 76 75 75 75 74 74 74 73 73 72 72
68 69 70 70 71 71 71 71 72 73 73 74 75 76 76 76 77 77 77 76 76 76 76 76 76 76 76 76 76 77 77 77 77 77 77 77 77 78 78 77 77 77 76 76 76 76 76 75 75 75 75 74
70 70 71 71 72 72 72 72 73 73 74 75 76 76 77 78 78 79 79 79 79 79 79 79 79 78 78 78 78 79 79 79 79 79 79 79 79 79 79 79 78 78 78 78 78 77 77 77 77 77 76 76
71 71 72 72 73 73 73 73 74 74 75 75 76 76 77 78 78 79 80 80 80 81 81 81 81 81 81 80 80 81 81 81 82 82 82 81 81 81 81 80 80 80 80 80 80 79 79 79 79 79 78 78
72 72 73 73 73 74 74 74 75 75 76 76 77 77 78 79 79 80 80 81 81 82 82 82 82 82 82 82 82 82 82 83 83 83 83 83 83 83 83 82 82 82 82 81 81 81 81 81 80 80 80 79
73 73 74 74 74 75 75 75 75 76 76 77 77 78 79 80 80 81 81 82 83 83 84 84 84 84 84 84 84 84 84 85 85 85 85 85 85 85 85 84 84 84 84 83 83 83 83 82 82 81 81 80
75 75 76 76 77 77 77 77 77 77 78 78 78 79 79 80 81 82 82 83 83 84 85 85 86 86 86 86 86 86 87 87 87 87 87 87 87 87 87 87 86 86 86 86 85 85 84 84 83 83 82 82
76 77 78 78 79 79 79 79 79 80 80 80 80 80 81 81 82 82 83 83 84 85 85 86 87 87 87 87 88 88 88 88 88 88 88 88 88 88 88 88 88 88 88 88 87 87 86 86 85 84 83 83
77 78 79 80 81 81 82 82 82 82 82 82 82 83 83 83 83 84 84 84 85 86 86 87 87 88 88 89 89 90 90 90 90 90 89 90 90 89 89 90 90 90 89 89 89 89 88 87 87 86 85 85
77 78 79 79 81 82 83 84 84 84 85 85 85 85 85 85 86 86 86 87 87 87 88 88 89 89 89 90 91 91 92 92 91 91 91 91 91 91 90 90 90 91 91 90 90 89 89 89 89 88 87 87
77 78 79 79 80 81 82 83 84 85 86 86 87 87 87 87 88 88 88 89 89 89 90 90 90 90 91 91 92 92 92 93 93 93 93 92 92 92 92 91 91 91 92 91 91 91 90 90 90 89 89 89
74 75 77 78 79 81 82 83 83 84 85 86 87 88 88 89 89 89 89 90 90 91 91 92 92 92 93 93 93 93 94 94 94 94 94 93 93 93 93 93 92 92 92 92 92 92 92 91 91 90 90 90
69 71 72 74 76 78 80 81 83 84 85 85 86 86 87 88 89 90 90 91 91 91 92 92 92 93 93 94 95 95 95 95 94 94 94 94 93 93 93 93 94 94 93 93 93 93 93 92 92 92 92 91
64 65 67 69 71 72 74 77 79 81 83 85 86 86 86 87 88 89 90 91 91 91 92 92 92 92 93 94 94 95 96 96 96 95 95 94 94 94 93 93 94 94 94 94 93 93 93 92 93 93 93 92
61 62 63 64 65 66 68 70 72 75 77 80 82 85 86 87 87 88 88 90 91 91 92 92 92 92 92 92 93 93 94 95 95 95 95 95 95 94 94 94 94 94 95 95 94 94 93 92 92 93 93 93
62 62 63 63 64 64 65 66 67 69 71 73 76 79 82 84 86 87 87 88 88 89 91 91 92 92 92 91 91 92 92 92 93 94 94 94 94 94 94 94 94 94 94 95 95 95 94 93 92 92 93 93
62 63 64 65 65 66 66 66 67 68 69 70 72 74 76 79 82 85 86 87 87 87 87 88 89 90 91 91 92 92 91 91 91 91 91 91 92 92 92 92 92 93 94 94 95 95 95 95 94 92 91 91
62 64 65 66 66 67 68 69 69 70 70 71 72 73 74 76 79 81 83 85 87 88 88 87 87 88 88 89 90 91 91 91 90 90 89 89 89 90 90 90 90 90 91 92 93 94 95 95 95 94 93 91
63 64 66 67 67 68 69 70 71 72 72 73 73 74 75 76 77 79 80 82 84 86 87 88 88 88 88 88 89 89 90 90 90 90 89 89 89 88 88 89 88 87 87 89 91 93 93 94 94 94 94 93
63 64 66 68 69 69 70 70 71 72 73 74 75 75 76 76 77 78 79 80 81 83 84 86 87 88 89 89 90 90 90 89 89 89 89 90 89 89 89 89 88 87 86 85 86 89 91 93 94 94 93 94
Wind_Direction
268 268 267 267 266 265 264 263 263 262 262 261 260 259 258 257 256 255 254 254 253 253 253 253 253 253 253 253 253 253 253 253 252 252 253 253 253 254 254 255 254 254 255 256 257 257 258 258 258 258 258 257
268 268 267 267 266 266 266 266 265 265 264 263 262 261 260 259 258 256 255 255 254 254 255 255 255 255 255 255 254 254 255 255 254 254 254 255 255 256 256 256 257 256 256 257 257 258 258 258 258 258 258 257
268 268 267 267 267 266 266 266 266 266 266 265 264 264 263 262 261 260 258 257 256 256 256 256 256 256 256 256 255 255 256 256 256 256 256 256 257 257 257 258 258 258 258 258 258 258 258 258 258 257 257 257
269 269 268 268 268 267 267 267 267 267 267 267 266 266 265 264 263 262 261 260 259 257 257 257 256 256 256 256 256 256 256 256 257 257 257 257 258 258 258 258 258 258 259 259 259 258 258 258 257 257 256 256
269 269 269 269 269 269 269 269 268 268 268 267 267 266 265 265 264 264 263 262 261 260 259 258 258 257 257 257 257 257 257 257 257 257 258 258 258 258 258 258 258 258 258 259 259 259 259 258 257 256 256 256
271 271 270 270 270 270 270 270 270 269 268 267 267 266 266 265 265 264 264 263 263 262 261 261 260 260 259 259 259 259 259 258 258 259 259 259 259 259 259 259 259 258 258 259 259 259 259 259 258 257 256 256
272 272 272 271 271 271 270 270 269 268 268 267 266 266 265 265 264 264 264 263 263 263 263 262 262 262 262 262 262 261 261 261 261 261 261 260 260 260 260 259 259 259 259 259 259 259 259 258 258 258 257 256
272 272 271 271 270 270 269 268 268 267 267 266 266 265 265 264 264 263 263 263 263 263 263 263 263 263 262 262 262 262 262 262 262 262 262 262 261 261 261 261 260 260 260 259 259 259 258 258 258 258 257 257
270 270 269 269 269 268 268 267 267 267 266 266 266 265 265 264 263 263 263 263 263 263 263 263 263 263 262 262 262 262 262 262 262 262 262 262 262 261 261 261 261 261 260 260 259 259 259 258 258 258 257 257
270 269 269 268 268 267 267 267 266 266 266 265 265 265 264 264 263 263 263 262 262 262 262 262 262 262 262 262 262 262 262 262 262 262 262 262 261 261 261 261 261 261 260 260 260 259 259 259 258 258 258 257
270 269 269 268 268 267 266 266 266 265 265 265 265 264 264 264 263 263 263 262 262 261 261 261 261 261 262 262 262 262 261 261 261 261 261 261 261 261 260 260 260 260 260 260 260 259 259 259 259 258 258 258
269 269 269 268 267 267 266 266 265 265 264 264 264 264 264 264 264 263 263 263 262 262 262 261 261 261 261 261 261 261 261 261 260 260 260 260 260 260 260 260 260 260 260 260 259 259 259 259 259 259 259 258
270 270 269 269 268 268 267 266 266 266 265 265 265 265 265 265 264 264 264 263 263 263 262 262 262 261 261 260 260 260 260 260 260 260 260 259 259 260 260 260 260 260 260 259 259 259 259 259 259 259 259 259
272 271 270 270 269 269 268 268 267 267 267 267 267 266 266 266 265 265 265 264 264 263 263 262 262 262 261 261 261 260 260 260 260 260 260 259 259 259 259 259 259 259 259 259 259 259 259 259 259 259 259 259
273 272 272 271 270 270 269 269 268 268 268 267 267 267 267 267 266 266 266 266 265 265 264 264 263 263 262 262 261 261 261 260 260 260 260 260 260 260 259 259 259 259 259 259 259 259 259 259 259 259 259 259
273 273 272 271 271 270 270 269 269 268 268 267 267 266 266 266 265 265 265 265 265 265 264 264 264 263 263 262 262 262 261 261 261 260 260 260 260 260 260 259 259 259 258 258 258 259 258 258 258 258 259 259
274 273 273 272 271 271 270 269 269 268 268 267 267 266 266 265 265 264 264 264 264 263 263 263 263 262 262 262 261 261 261 260 260 260 260 260 260 260 259 259 259 259 259 258 258 258 258 258 258 258 258 258
275 275 274 273 272 272 271 270 269 268 268 267 267 266 266 266 265 265 264 263 263 263 262 262 262 261 261 261 260 260 260 260 260 260 259 259 259 259 259 259 258 258 258 258 258 258 257 257 257 257 257 257
276 275 275 274 273 273 272 271 270 269 268 268 267 266 266 266 265 265 265 264 263 263 262 262 261 261 261 260 260 259 259 259 259 259 259 259 258 258 258 258 258 258 257 257 257 257 257 257 257 256 256 256
275 275 274 274 274 273 272 271 270 270 269 268 267 266 266 265 265 265 264 264 264 263 263 262 261 261 261 260 260 259 259 259 258 258 258 258 258 257 257 257 257 257 257 257 257 257 257 256 256 256 256 255
275 274 274 273 273 272 272 271 271 270 269 268 267 266 266 265 265 264 264 264 263 263 263 262 262 261 261 261 260 260 260 259 259 258 258 258 258 257 257 257 257 257 256 256 256 256 256 256 255 255 255 255
276 275 274 273 272 272 271 271 270 269 269 268 268 267 266 265 265 264 264 263 263 263 263 262 262 262 261 261 260 260 260 260 259 259 258 258 258 258 257 257 257 256 256 256 255 255 255 255 255 255 254 254
279 278 277 275 274 273 272 271 270 270 269 269 268 267 266 266 265 264 264 263 263 263 262 262 262 262 261 261 261 260 260 260 259 259 259 258 258 258 258 257 256 256 256 256 255 255 255 255 254 254 254 253
283 282 281 279 278 277 275 274 273 272 271 270 269 269 268 267 266 265 264 263 263 262 262 262 262 262 261 261 261 260 260 260 259 259 259 259 258 258 258 257 257 256 256 255 255 255 255 255 254 254 253 253
289 288 286 285 283 282 280 279 277 276 274 272 271 271 270 269 268 267 266 265 264 263 263 262 262 261 261 261 261 261 260 260 260 259 259 259 258 258 257 257 257 257 256 255 255 255 255 254 254 254 254 253
293 292 291 289 288 287 285 284 282 281 279 277 275 273 272 271 270 270 269 268 267 265 264 263 263 262 262 261 261 261 261 260 260 260 259 259 258 258 257 257 257 257 256 256 255 255 254 254 254 254 254 253
294 293 292 291 290 289 288 287 285 284 282 281 279 277 275 273 272 271 270 270 269 268 267 266 265 264 263 263 262 262 261 261 261 260 260 259 259 258 258 257 257 257 257 256 255 255 254 253 253 253 254 254
296 294 293 292 291 290 289 288 287 286 285 283 281 279 277 276 274 272 271 270 270 269 269 268 267 266 265 264 264 263 262 262 261 261 260 260 259 258 258 258 257 257 257 256 255 255 254 253 252 252 252 253
300 298 296 294 293 292 291 290 290 289 288 286 284 282 279 277 275 274 272 271 270 269 268 268 268 267 266 266 265 264 263 262 262 261 261 260 260 259 258 258 257 257 257 257 256 255 254 253 252 252 251 251
304 302 299 298 296 295 294 293 292 291 290 289 287 285 283 280 278 276 274 272 271 270 269 268 268 267 267 266 266 265 264 263 263 262 261 261 260 259 259 258 257 257 257 257 257 256 254 253 252 251 251 250
307 304 301 300 298 297 295 294 293 292 291 290 288 287 285 283 281 278 276 274 272 271 269 268 268 267 267 267 266 266 265 265 264 263 262 261 261 260 259 258 257 257 257 258 258 257 255 254 253 252 251 250